| time (UTC) | temp C | wind direction | speed KPH | gust KPH | rain 1hr cm | rain 24hr cm | rain mn cm | humidity % | barometer mb |
| 20260505065039 | 18 | 118 | 1.6 | 3.2 | 0.00 | 0.00 | 0.00 | 6 | 1018.1 |
| 20260505064039 | 18 | 0 | 0.0 | 1.6 | 0.00 | 0.00 | 0.00 | 5 | 1017.9 |
| 20260505063039 | 18 | 257 | 3.2 | 3.2 | 0.00 | 0.00 | 0.00 | 5 | 1017.6 |
| 20260505062039 | 19 | 0 | 0.0 | 0.0 | 0.00 | 0.00 | 0.00 | 5 | 1017.6 |
| 20260505061039 | 19 | 257 | 3.2 | 3.2 | 0.00 | 0.00 | 0.00 | 5 | 1017.5 |
| 20260505060039 | 20 | 252 | 4.8 | 4.8 | 0.00 | 0.00 | 0.00 | 5 | 1017.4 |
| 20260505055039 | 20 | 260 | 3.2 | 4.8 | 0.00 | 0.00 | 0.00 | 5 | 1017.4 |
| 20260505054039 | 20 | 0 | 0.0 | 1.6 | 0.00 | 0.00 | 0.00 | 5 | 1017.4 |
| 20260505053039 | 20 | 237 | 1.6 | 4.8 | 0.00 | 0.00 | 0.00 | 5 | 1017.3 |
| 20260505052039 | 21 | 216 | 6.4 | 12.9 | 0.00 | 0.00 | 0.00 | 4 | 1017.4 |
| 20260505051039 | 21 | 263 | 11.3 | 11.3 | 0.00 | 0.00 | 0.00 | 5 | 1017.4 |
| 20260505041039 | 21 | 256 | 12.9 | 17.7 | 0.00 | 0.00 | 0.00 | 4 | 1017.0 |
| 20260505040038 | 21 | 227 | 6.4 | 11.3 | 0.00 | 0.00 | 0.00 | 5 | 1016.8 |
| 20260505035038 | 21 | 249 | 6.4 | 12.9 | 0.00 | 0.00 | 0.00 | 4 | 1017.0 |
| 20260505034038 | 21 | 231 | 8.0 | 8.0 | 0.00 | 0.00 | 0.00 | 4 | 1017.0 |
| 20260505033038 | 21 | 209 | 3.2 | 6.4 | 0.00 | 0.00 | 0.00 | 5 | 1017.0 |
| 20260505032038 | 21 | 240 | 6.4 | 17.7 | 0.00 | 0.00 | 0.00 | 5 | 1017.2 |
| 20260505031038 | 21 | 233 | 3.2 | 6.4 | 0.00 | 0.00 | 0.00 | 5 | 1017.2 |
| 20260505030038 | 20 | 197 | 3.2 | 6.4 | 0.00 | 0.00 | 0.00 | 5 | 1017.3 |
| 20260505025038 | 20 | 195 | 4.8 | 9.7 | 0.00 | 0.00 | 0.00 | 5 | 1017.2 |
| 20260505024038 | 20 | 240 | 9.7 | 9.7 | 0.00 | 0.03 | 0.00 | 5 | 1017.4 |
| 20260505023038 | 20 | 214 | 4.8 | 12.9 | 0.00 | 0.03 | 0.00 | 5 | 1017.5 |
| 20260505022037 | 20 | 204 | 9.7 | 12.9 | 0.00 | 0.05 | 0.00 | 5 | 1017.5 |
| 20260505021037 | 20 | 276 | 11.3 | 19.3 | 0.00 | 0.05 | 0.00 | 5 | 1017.6 |
| 20260505020037 | 20 | 239 | 11.3 | 11.3 | 0.00 | 0.08 | 0.00 | 5 | 1017.5 |
| 20260505015037 | 20 | 228 | 4.8 | 9.7 | 0.00 | 0.08 | 0.00 | 5 | 1017.8 |
| 20260505014037 | 19 | 254 | 14.5 | 17.7 | 0.00 | 0.08 | 0.00 | 5 | 1017.9 |
| 20260505013037 | 19 | 213 | 9.7 | 17.7 | 0.00 | 0.08 | 0.00 | 5 | 1018.1 |
| 20260505012037 | 19 | 222 | 6.4 | 6.4 | 0.00 | 0.08 | 0.00 | 5 | 1018.1 |
| 20260505011037 | 18 | 235 | 3.2 | 12.9 | 0.00 | 0.08 | 0.00 | 5 | 1018.0 |
| 20260505010037 | 18 | 260 | 11.3 | 12.9 | 0.00 | 0.08 | 0.00 | 5 | 1018.2 |
| 20260505005037 | 18 | 236 | 11.3 | 11.3 | 0.00 | 0.08 | 0.00 | 5 | 1018.4 |
| 20260505004037 | 18 | 230 | 4.8 | 11.3 | 0.00 | 0.08 | 0.00 | 5 | 1018.5 |
| 20260505003037 | 18 | 247 | 17.7 | 17.7 | 0.00 | 0.08 | 0.00 | 5 | 1018.6 |
| 20260505002037 | 18 | 234 | 9.7 | 14.5 | 0.00 | 0.08 | 0.00 | 5 | 1018.6 |
| 20260505001037 | 18 | 228 | 17.7 | 22.5 | 0.00 | 0.08 | 0.00 | 5 | 1018.6 |
| 20260505000037 | 18 | 282 | 11.3 | 19.3 | 0.00 | 0.08 | 0.00 | 5 | 1018.5 |
| 20260504235037 | 18 | 229 | 8.0 | 19.3 | 0.00 | 0.08 | 0.00 | 5 | 1018.7 |
| 20260504234037 | 17 | 268 | 6.4 | 14.5 | 0.00 | 0.08 | 0.00 | 6 | 1018.8 |
| 20260504233037 | 17 | 278 | 6.4 | 12.9 | 0.00 | 0.08 | 0.00 | 6 | 1018.9 |
| 20260504232037 | 17 | 307 | 12.9 | 16.1 | 0.00 | 0.08 | 0.00 | 6 | 1019.1 |
| 20260504231037 | 17 | 258 | 1.6 | 4.8 | 0.00 | 0.08 | 0.00 | 6 | 1019.3 |
| 20260504230037 | 17 | 246 | 3.2 | 12.9 | 0.00 | 0.08 | 0.00 | 6 | 1019.1 |
| 20260504225037 | 17 | 237 | 4.8 | 8.0 | 0.00 | 0.08 | 0.00 | 6 | 1019.0 |
| 20260504224037 | 16 | 266 | 6.4 | 6.4 | 0.00 | 0.08 | 0.00 | 6 | 1018.9 |
| 20260504223037 | 16 | 285 | 12.9 | 12.9 | 0.00 | 0.08 | 0.00 | 6 | 1018.6 |
| 20260504222037 | 16 | 344 | 6.4 | 8.0 | 0.00 | 0.08 | 0.00 | 6 | 1018.8 |
| 20260504221037 | 16 | 266 | 1.6 | 6.4 | 0.00 | 0.08 | 0.00 | 6 | 1018.9 |
| 20260504220037 | 15 | 261 | 8.0 | 9.7 | 0.00 | 0.08 | 0.00 | 6 | 1018.8 |
| 20260504215037 | 15 | 262 | 3.2 | 8.0 | 0.00 | 0.08 | 0.00 | 7 | 1018.4 |
| 20260504214037 | 15 | 268 | 6.4 | 12.9 | 0.00 | 0.08 | 0.00 | 7 | 1018.1 |
| 20260504213037 | 14 | 277 | 11.3 | 16.1 | 0.00 | 0.08 | 0.00 | 7 | 1018.1 |
| 20260504212037 | 13 | 275 | 9.7 | 12.9 | 0.00 | 0.08 | 0.00 | 7 | 1018.2 |
| 20260504211037 | 13 | 255 | 3.2 | 8.0 | 0.00 | 0.08 | 0.00 | 8 | 1018.1 |
| 20260504210037 | 13 | 291 | 3.2 | 6.4 | 0.00 | 0.08 | 0.00 | 8 | 1017.9 |
| 20260504205037 | 13 | 292 | 3.2 | 3.2 | 0.00 | 0.08 | 0.00 | 8 | 1017.6 |
| 20260504204037 | 13 | 302 | 4.8 | 4.8 | 0.00 | 0.08 | 0.00 | 8 | 1017.6 |
| 20260504203037 | 13 | 272 | 3.2 | 3.2 | 0.00 | 0.08 | 0.00 | 8 | 1017.4 |
| 20260504202037 | 13 | 267 | 1.6 | 3.2 | 0.00 | 0.08 | 0.00 | 8 | 1017.3 |
| 20260504201037 | 13 | 264 | 3.2 | 4.8 | 0.00 | 0.08 | 0.00 | 8 | 1017.2 |
| 20260504200037 | 14 | 239 | 4.8 | 6.4 | 0.00 | 0.08 | 0.00 | 8 | 1017.1 |
| 20260504195037 | 14 | 244 | 8.0 | 9.7 | 0.00 | 0.08 | 0.00 | 8 | 1016.9 |
| 20260504194037 | 14 | 255 | 4.8 | 8.0 | 0.00 | 0.08 | 0.00 | 8 | 1016.8 |
| 20260504193037 | 14 | 262 | 3.2 | 4.8 | 0.00 | 0.08 | 0.00 | 8 | 1016.7 |
| 20260504192037 | 15 | 244 | 4.8 | 8.0 | 0.00 | 0.08 | 0.00 | 7 | 1016.7 |
| 20260504191037 | 15 | 251 | 8.0 | 12.9 | 0.00 | 0.08 | 0.00 | 7 | 1016.7 |
| 20260504190036 | 15 | 247 | 6.4 | 12.9 | 0.00 | 0.08 | 0.00 | 7 | 1016.7 |
| 20260504185036 | 15 | 243 | 3.2 | 6.4 | 0.00 | 0.08 | 0.00 | 7 | 1016.6 |
| 20260504184036 | 15 | 255 | 3.2 | 4.8 | 0.00 | 0.08 | 0.00 | 7 | 1016.4 |
| 20260504183036 | 15 | 246 | 1.6 | 8.0 | 0.00 | 0.08 | 0.00 | 7 | 1016.2 |
| 20260504182036 | 15 | 249 | 4.8 | 8.0 | 0.00 | 0.08 | 0.00 | 7 | 1016.2 |
| 20260504181036 | 15 | 248 | 3.2 | 6.4 | 0.00 | 0.08 | 0.00 | 7 | 1016.0 |
| 20260504180036 | 15 | 253 | 6.4 | 6.4 | 0.00 | 0.08 | 0.00 | 7 | 1016.0 |
| 20260504175036 | 15 | 260 | 8.0 | 11.3 | 0.00 | 0.08 | 0.00 | 7 | 1015.9 |
| 20260504174036 | 15 | 247 | 6.4 | 14.5 | 0.00 | 0.08 | 0.00 | 7 | 1015.9 |
| 20260504173036 | 15 | 231 | 4.8 | 12.9 | 0.00 | 0.08 | 0.00 | 7 | 1016.0 |
| 20260504172036 | 16 | 241 | 3.2 | 6.4 | 0.00 | 0.08 | 0.00 | 7 | 1016.1 |
| 20260504171036 | 16 | 259 | 11.3 | 11.3 | 0.00 | 0.08 | 0.00 | 7 | 1016.3 |
| 20260504151035 | 16 | 249 | 6.4 | 8.0 | 0.00 | 0.08 | 0.00 | 8 | 1016.3 |
| 20260504141034 | 17 | 241 | 4.8 | 4.8 | 0.00 | 0.08 | 0.00 | 8 | 1016.5 |
| 20260504081028 | 18 | 0 | 0.0 | 0.0 | 0.00 | 0.08 | 0.08 | 8 | 1015.6 |